STARLINK-34084, 63970

Orbit data source: Space-Track

STARLINK-34084, 63970 is a payload satellite owned by SpaceX/Seattle (US) in LEO that was launched on Tue, 13 May 2025 UTC via an FALCON 9 launch vehicle from the Air Force Eastern Test Range (AFETR). Payload-class satellites include a variety of spacecraft equipped with specific instruments for various scientific and technological missions. These include communications satellites like Starlink; space stations such as the ISS; scientific satellites like the Hubble; Earth observation satellites from companies like Planet Labs, Umbra, and HawkEye 360; GPS; miniature CubeSats for education and research; and military/defense satellites.

Loading next visibility...
Identifier
63970, 2025-099U
Orbit
LEO
Country
Flag of USUS
Related business
Manufacturer
SpaceX/Seattle
Mission
Operational Commercial Communications
Bus & Motor
STARLINK V2MO, Unknown motor
Mass
575 kg wet, ~530 kg dry
Launch date (UTC)
2025-05-13 (1 year ago)
Launch vehicle
FALCON 9
Launch site
Air Force Eastern Test Range (AFETR)
Object type
Payload
Rocket body
Debris
Shape & HBR
Box + 2 Pan, 17.7 m
Radar Cross Section
36.964 m², Large (>1 m²)

Expand to show TLE details & history
Last TLE update: 13 hours ago

TLE from 13 hours ago
0 STARLINK-34084
1 63970U 25099U   26171.42761902  .00015921  00000-0  58659-3 0  9992
2 63970  42.9999 315.5773 0002312 279.1835  80.8755 15.27591792 63058
Epoch: 2026-06-20T10:15Z
TLE epoch observation values (Epoch: 2026-06-20T10:15:46.283Z)
Latitude
-0.00001°
Longitude
-107.00796°
Altitude
482.538 km
Speed
7.626 km/s
True Right ascension
21h 02m 18s
True Declination
0° 00' 00"
Sunlit
Object was in full shadow at epoch
Visualization orbit readout
Latitude
Unknown
Longitude
Unknown
Altitude
Unknown
Speed
Unknown
Apparent Right ascension
Unknown
Apparent Declination
Unknown
Sunlit
N/A
Visualization observer readout
Local Sidereal Time
10:20:19
Azimuth
Unknown
Elevation
Unknown
Doppler factor
Unknown
Orbital elements
Apogee altitude
486.546 km
Perigee altitude
483.372 km
Semi-major axis
6,863.096 km
Eccentricity
0.00023
Inclination
42.9999°
RAAN
315.5773°
Arg. of periapsis
279.1835°
True anomaly
80.90166°
Mean anomaly
80.8755°
Eccentric anomaly
80.88858°
Mean motion
3.81736 °/min
Orbital period
94.31 mins
BSTAR
0.00058659
Loading maneuver chart data...
Computing Atmospheric mass density...
Loading historical data...
Loading historical data...
Loading historical data...
Loading historical data...
Loading historical data...
Loading historical data...
Loading historical data...

Documentation

Showing up to 5 results
|